Temp_Advection
nan nan nan nan nan nan nan nan nan nan nan nan nan nan nan nan nan nan nan nan nan nan nan nan nan nan nan
nan -1 -0 0 -0 -1 -0 -0 -0 -0 -0 -0 -0 0 0 0 -0 -0 -0 -0 -0 -0 -0 -0 -0 0 nan
nan -0 -0 -0 -0 -0 -1 -1 -0 -0 -0 -0 -0 -0 0 0 0 -0 -0 -0 0 -0 -0 -0 -0 -0 nan
nan -0 -0 0 0 -0 -0 -1 -1 -0 -0 -0 -0 -0 -0 0 0 0 -0 -0 0 0 -0 -0 -0 -0 nan
nan -0 -0 -0 0 0 -1 -1 -1 -0 -0 -0 0 0 -0 -0 0 0 0 0 0 0 -0 -0 -0 -0 nan
nan -0 -1 0 0 0 0 -0 -1 -1 -1 -0 -0 -0 -0 -0 0 0 0 -0 0 0 0 -0 -0 -0 nan
nan -0 -0 0 0 -0 0 0 0 0 -1 -1 -0 -0 -0 -0 0 0 0 0 0 0 0 0 0 0 nan
nan -0 0 0 0 -0 0 0 0 0 0 -1 -1 -0 -0 -0 -0 0 0 0 -0 0 0 0 0 0 nan
nan 0 0 0 0 -0 0 0 -0 0 1 -0 -1 -0 -0 -0 -0 0 0 0 0 -0 -0 0 0 0 nan
nan -0 0 0 0 0 0 0 1 -1 -1 0 -0 -0 -0 -0 0 0 0 0 0 0 0 0 0 0 nan
nan -0 0 0 0 0 0 0 0 -0 0 0 -0 -0 -0 -0 -0 0 -0 -0 0 0 0 0 -0 -0 nan
nan 0 0 0 0 0 0 0 -0 0 0 0 -0 0 0 -0 -0 -0 -0 0 0 0 0 0 -0 0 nan
nan 0 0 0 0 -0 -0 -0 0 0 0 0 0 0 0 0 -0 -0 -0 0 0 0 0 0 -0 -0 nan
nan 0 0 0 0 0 0 0 0 -0 -0 0 0 0 0 0 0 -0 0 -0 0 0 0 -0 -0 -0 nan
nan -0 -1 -0 0 0 -0 0 0 -0 0 0 0 0 0 -0 -0 -0 0 0 0 0 -0 -0 -0 -0 nan
nan 0 -0 -0 -0 -0 0 0 0 0 0 0 0 0 -0 -0 -0 0 0 -0 0 0 0 -1 -0 0 nan
nan nan nan nan nan nan nan nan nan nan nan nan nan nan nan nan nan nan nan nan nan nan nan nan nan nan nan
Wind_Speed
30 25 24 21 19 18 18 16 14 13 14 13 12 11 12 11 10 11 10 9 7 6 4 2 1 2 3
32 32 26 23 21 21 17 16 16 15 14 12 12 11 11 11 11 11 10 9 8 6 5 4 4 3 6
32 31 30 26 25 23 20 18 17 16 14 13 13 12 12 11 12 11 10 9 8 7 5 4 4 4 4
30 31 28 26 26 26 24 21 19 16 14 14 14 13 11 10 11 11 10 10 9 8 7 7 6 5 6
27 30 30 27 25 24 26 24 21 19 16 14 12 11 11 11 11 11 11 11 10 10 10 10 9 9 8
26 27 29 27 25 24 24 25 26 18 17 14 15 14 14 14 13 13 13 12 12 12 12 12 12 12 12
25 27 26 23 21 23 24 23 23 22 23 23 17 17 15 15 15 15 14 14 14 14 14 14 14 14 14
22 23 21 19 19 19 20 21 21 21 21 26 22 19 15 15 15 15 15 15 15 15 14 15 16 16 15
19 20 21 20 20 21 20 19 19 20 19 22 25 22 20 17 16 16 15 15 15 15 16 15 16 16 17
17 17 18 18 19 19 17 18 16 16 16 16 15 14 8 11 12 14 13 10 10 12 11 13 15 18 17
21 19 18 18 17 18 19 20 20 20 19 18 16 14 12 14 12 11 12 12 11 11 13 15 15 14 15
17 17 16 17 18 19 19 18 16 17 18 19 20 19 19 20 21 19 13 12 12 13 16 17 17 17 18
19 18 16 17 18 19 22 23 21 19 18 18 18 18 19 21 23 22 20 17 17 17 17 19 19 19 20
19 18 16 15 15 16 19 19 20 20 18 18 18 18 19 22 23 24 21 18 15 17 16 17 18 18 18
20 20 22 20 18 14 15 17 18 19 18 17 17 16 18 21 25 24 22 23 21 21 23 24 21 18 19
20 19 19 19 20 17 16 16 17 18 16 16 18 19 20 21 22 21 19 20 19 19 21 22 22 18 18
20 19 20 20 21 21 19 17 17 16 16 16 17 18 18 21 19 17 15 14 14 16 17 18 19 18 19
Wind_Direction
283 290 294 297 295 295 299 297 296 296 297 296 295 293 293 295 299 302 307 313 312 315 319 306 228 203 194
280 287 290 295 295 294 293 291 293 294 292 287 289 291 287 286 288 290 292 296 302 307 312 311 294 237 214
276 283 288 294 293 292 293 290 289 290 288 288 288 289 285 280 279 280 279 279 281 286 287 286 285 287 285
270 275 279 284 287 293 294 293 289 283 281 283 284 284 285 280 274 271 270 270 271 273 275 277 276 275 274
268 272 275 277 279 286 291 294 287 283 280 280 277 276 283 280 276 270 265 263 264 264 266 267 269 269 269
269 269 273 277 278 280 284 288 293 286 282 271 277 276 278 278 274 270 265 264 261 259 261 262 264 266 266
271 274 277 278 278 270 270 271 276 283 286 284 277 277 278 273 268 265 261 259 261 258 260 261 260 261 261
271 275 276 273 268 268 269 270 270 274 281 285 287 284 280 272 265 257 256 258 262 264 262 263 261 260 262
270 272 273 268 264 262 263 267 269 271 271 274 280 289 286 274 264 260 258 261 267 271 271 266 262 259 261
273 270 270 266 262 261 259 257 259 272 275 263 273 284 291 274 260 257 260 260 266 275 278 274 265 261 259
274 269 264 264 263 265 264 263 262 258 262 268 269 267 259 270 269 265 272 274 267 273 275 273 270 267 261
276 271 272 276 275 270 262 258 260 265 257 253 257 260 261 266 269 271 269 254 264 276 269 267 266 263 264
272 272 267 266 270 270 264 262 258 258 262 257 256 256 257 261 267 270 271 264 267 275 265 266 263 261 263
277 273 267 265 264 270 268 263 260 257 260 264 262 257 258 262 261 260 264 262 261 279 265 266 268 268 266
279 281 276 266 264 257 269 268 266 260 258 265 262 264 265 262 262 262 262 264 267 271 264 264 257 267 266
276 279 276 272 271 268 264 267 271 270 265 259 262 263 267 263 262 265 263 267 267 261 260 261 261 261 259
278 276 277 273 270 267 266 267 271 273 269 265 262 260 262 262 259 262 264 266 259 254 257 260 266 266 267
Height
1466 1466 1465 1464 1463 1460 1459 1457 1455 1453 1451 1449 1448 1446 1445 1444 1443 1442 1441 1440 1439 1439 1438 1438 1438 1438 1438
1461 1459 1459 1459 1458 1456 1455 1453 1451 1449 1448 1446 1445 1444 1442 1441 1441 1440 1439 1438 1438 1438 1437 1437 1437 1438 1437
1452 1454 1454 1454 1452 1451 1450 1448 1446 1445 1443 1442 1441 1440 1439 1439 1438 1437 1436 1436 1436 1436 1436 1436 1436 1436 1437
1447 1445 1447 1448 1447 1447 1445 1444 1442 1441 1439 1438 1437 1436 1436 1435 1435 1434 1434 1434 1434 1434 1434 1434 1434 1435 1435
1440 1440 1439 1440 1441 1441 1440 1440 1438 1437 1436 1434 1433 1433 1433 1432 1431 1431 1431 1431 1431 1431 1431 1431 1431 1431 1432
1434 1432 1432 1434 1435 1435 1434 1434 1434 1434 1432 1431 1430 1429 1428 1428 1427 1427 1427 1428 1428 1428 1428 1428 1428 1429 1429
1428 1427 1426 1426 1427 1426 1427 1426 1428 1430 1429 1426 1426 1425 1425 1423 1423 1423 1424 1424 1424 1424 1424 1425 1425 1426 1426
1421 1421 1420 1421 1419 1419 1419 1420 1420 1422 1423 1421 1422 1422 1421 1420 1419 1418 1418 1419 1419 1420 1421 1421 1422 1422 1423
1414 1415 1415 1414 1414 1412 1412 1413 1413 1415 1416 1416 1416 1416 1416 1416 1415 1415 1414 1415 1415 1416 1416 1416 1418 1418 1418
1410 1407 1408 1410 1408 1407 1407 1406 1407 1407 1409 1408 1409 1412 1412 1411 1411 1411 1412 1411 1411 1411 1412 1412 1413 1413 1414
1403 1403 1402 1402 1404 1403 1402 1402 1401 1400 1401 1403 1402 1405 1408 1410 1410 1409 1409 1409 1409 1409 1409 1409 1410 1409 1409
1396 1397 1398 1398 1399 1399 1397 1396 1395 1396 1396 1395 1395 1397 1399 1403 1405 1406 1406 1405 1405 1405 1405 1405 1405 1404 1404
1392 1392 1391 1391 1392 1393 1392 1391 1390 1390 1390 1389 1389 1391 1392 1395 1398 1400 1400 1401 1401 1400 1400 1400 1400 1399 1399
1386 1386 1387 1387 1387 1388 1387 1385 1384 1385 1384 1384 1384 1384 1385 1388 1391 1393 1394 1396 1395 1395 1395 1395 1395 1394 1393
1381 1379 1381 1381 1382 1382 1381 1380 1379 1378 1378 1378 1379 1379 1380 1382 1383 1385 1387 1388 1389 1388 1387 1387 1389 1389 1388
1376 1374 1374 1375 1376 1376 1375 1375 1373 1373 1372 1373 1374 1374 1374 1375 1377 1379 1380 1381 1382 1381 1381 1382 1383 1383 1383
1370 1368 1369 1369 1369 1369 1369 1369 1369 1368 1367 1367 1368 1369 1369 1369 1372 1374 1374 1376 1376 1376 1376 1376 1376 1378 1377